Location: Drummondville
(45.8830°N, 72.4830°W)
Time: 17:07:51
(UTC-05:00)

OTV 5 (USA 277) - Visible Passes

Search period start: 18 February 2018 00:00
Search period end: 28 February 2018 00:00
Orbit: 404 x 417 km, 43.0° (Epoch: 07 September)

Date Brightness Start Highest point End Pass type
(mag) Time Alt. Az. Time Alt. Az. Time Alt. Az.
19 Feb ? 06:15:08 10° SSW 06:17:23 17° SSE 06:19:39 10° ESE visible
20 Feb ? 05:25:02 10° S 05:26:31 12° SSE 05:28:00 10° ESE visible
21 Feb ? 06:09:22 10° SW 06:12:17 29° SSE 06:15:12 10° E visible
22 Feb ? 05:19:05 12° SSW 05:21:20 23° SSE 05:24:01 10° ESE visible
23 Feb ? 04:30:35 17° SSE 04:30:35 17° SSE 04:32:42 10° ESE visible
23 Feb ? 06:04:08 10° WSW 06:07:16 43° S 06:10:26 10° E visible
24 Feb ? 05:14:44 22° SW 05:16:17 36° SSE 05:19:22 10° E visible
25 Feb ? 04:26:04 26° SE 04:26:04 26° SE 04:28:15 10° E visible
25 Feb ? 05:59:08 10° WSW 06:02:20 51° S 06:05:33 10° ESE visible
26 Feb ? 05:10:07 30° SW 05:11:20 48° S 05:14:31 10° E visible
27 Feb ? 04:21:23 31° ESE 04:21:23 31° ESE 04:23:28 10° E visible
27 Feb ? 05:54:14 10° W 05:57:24 47° S 06:00:35 10° ESE visible
